Location: Ch�tillon
(48.8024°N, 2.2935°E)
Time: 22:09:43
(UTC+00:00)

CSL-04 Rocket - Pass Details

Date: 16 October 2021
Orbit: 805 x 861 km, 98.9° (Epoch: 06 December)

Event Time Altitude Azimuth Distance (km) Brightness Sun altitude
Exits shadow 19:30:15 23° 181° (S) 1,735 5.2 -25.5°
Maximum altitude 19:33:44 64° 258° (WSW) 945 4.0 -26.0°
Drops below altitude 10° 19:39:16 10° 340° (NNW) 2,508 6.6 -26.9°
Sets 19:41:42 0° 343° (NNW) 3,451 7.3 -27.3°
